Regional Weather Roundup
Issued by NWS Newport/Morehead, NC

Current Version | Previous Version | Graphics & Text | Print | Product List | Glossary Off
Versions: 1 2 3 4 5 6 7 8 9 10 11 12 13 14 15 16 17 18 19 20 21 22 23 24 25 26 27 28 29 30 31 32 33 34 35 36 37 38 39 40 41 42 43 44 45 46 47 48 49 50

000
ASUS42 KMHX 290813
RWRMHX
WEATHER ROUNDUP FOR EASTERN NORTH CAROLINA
NATIONAL WEATHER SERVICE NEWPORT/MOREHEAD CITY NC
400 AM EDT FRI MAY 29 2015

NOTE: "FAIR" INDICATES FEW OR NO CLOUDS BELOW 12,000 FEET
WITH NO SIGNIFICANT WEATHER AND/OR OBSTRUCTIONS TO VISIBILITY

NCZ015>017-031-032-045>047-102-103-290900-
NORTH COAST

CITY           SKY/WX    TMP DP  RH WIND       PRES   REMARKS
EDENTON        CLEAR     67  63  86 CALM      30.22S
ELIZABETH CITY PTCLDY    67  64  90 S3        30.22S
KITTY HAWK       N/A     67  63  87 CALM      30.22R
MANTEO         CLEAR     64  62  93 CALM      30.23S

$$

NCZ045>047-081-094-103-104-290900-
CENTRAL COAST

CITY           SKY/WX    TMP DP  RH WIND       PRES   REMARKS
FRISCO         CLEAR     65  61  87 NW3       30.21F
SWANQUARTER      N/A     63 N/A N/A E1        30.18S

$$

NCZ095-097-098-100-101-290900-
SOUTHERN COAST

CITY           SKY/WX    TMP DP  RH WIND       PRES   REMARKS
BEAUFORT       CLEAR     65  64  97 CALM      30.21S
CEDAR ISLAND     N/A     68 N/A N/A W1        30.24S
JACKSONVILLE   CLEAR     62  60  93 CALM      30.19F
PINEY ISLAND   SUNNY    N/A N/A N/A CALM      30.21S
WILMINGTON     CLEAR     62  60  93 NE3       30.19F


$$

NCZ011>013-027>030-043-044-078>080-089-090>093-098-290900-
COASTAL PLAIN

CITY           SKY/WX    TMP DP  RH WIND       PRES   REMARKS
AHOSKIE        CLOUDY    67  63  87 CALM      30.21F
CLINTON        CLEAR     65  64  97 CALM      30.20F
ELIZABETHTOWN  CLEAR     64  63  98 CALM      30.19F
GOLDSBORO      PTCLDY    65  63  92 CALM      30.19S
GREENVILLE     MOCLDY    70  64  83 S3        30.22S
HAVELOCK       CLEAR     62  58  86 CALM      30.22S
KENANSVILLE    PTCLDY    62  60  95 CALM      30.21F
KINSTON        PTCLDY    67  63  86 CALM      30.21F
NEW BERN       CLEAR     60  57  89 CALM      30.22F
RICHLANDS      CLEAR     59  54  82 CALM      30.21S
ROCKY MOUNT    PTCLDY    69  64  84 CALM      30.21S
WASHINGTON       N/A     64  62  93 CALM      30.22S
WHITEVILLE     CLEAR     62  60  94 CALM      30.18F

$$

AMZ130-135-150-152-154-156-158-170-250-252-270-ANZ085-086-088-633-658-670-290900-
MARINE OBSERVATIONS

STATION/POSITION TIME  TEMP    WIND        PRES    WAVE   SWELL
                       AIR SEA DIR/SP/G            HT/PER HT/PER
                 (UTC) (F)     (DEG/KT/KT) (MB)    (FT/S) (FT/S)
CHESAPEAKE LIGHT 0700   70     200/ 14/ 14 1023.9
64 E VA BEACH    0750   67 65   70/  4/  4 1023.3    3/ 9   3/ 9
DUCK             0700      55                N/A
2 E DUCK         0711      60                N/A     3/ 9
OREGON INLET     0700      78                N/A
13E OREGON INLT  0800      74                N/A     3/ 8   2/11
HATTERAS CG      0700   73 76  200/  1/  2 1022.7
DIAMOND BUOY     0750   75 77  100/  2/  4 1022.9    4/ 9   3/ 9
CAPE LOOKOUT     0800   72      70/  2/  3 1022.5
BEAUFORT LAB     0700   71 76  100/  2/  2 1022.2
27 SE WRIGHTSVLE 0700      76   20/  2/  2   N/A
5 SE WRIGHTSVLE  NOT AVBL
225 S CAPE HAT   0750   74 74   70/ 12/ 14 1020.9    5/ 8   5/ 8
41 SE CHARLESTON 0750   76 79  100/  6/  8 1020.6    4/ 9   3/ 9

$$



USA.gov is the U.S. government's official web portal to all federal, state and local government web resources and services.